User: anonymous   Login
Location: Madison
(43.0730°N, 89.3819°W)
Time: 12:38:07
(UTC-06:00)
Language:

Hubble Space Telescope - Orbit

View from above orbital plane
View from above orbital plane
View from above satellite
View from above satellite

Ground track
Ground track

The orbit data is extracted from the following two-line orbital elements,

1 20580U 90037B   19320.33134243 +.00000474 +00000-0 +17915-4 0  9994
2 20580 028.4700 295.7922 0002467 309.6610 195.7949 15.09299314423587
Epoch (UTC): 16 November 2019 07:57:07
Eccentricity: 0.0002467
inclination: 28.4700°
perigee height: 536 km
apogee height: 540 km
right ascension of ascending node: 295.7922°
argument of perigee: 309.6610°
revolutions per day: 15.09299314
mean anomaly at epoch: 195.7949°
orbit number at epoch: 42358

The dashed part of the orbit path shows where the satellite is in the earth's shadow,  

DLR